Weather History for KDUJ - September, 2012

Change the Weather History Date:

Sunday, September 2, 2012

  Actual Average Record
Temperature  
Mean Temperature 73 °F 65 °F  
Max Temperature 80 °F 75 °F 88 °F (1973)
Min Temperature 65 °F 54 °F 43 °F (2001)
Degree Days  
Heating Degree Days 0 2  
Month to date heating degree days 0 4  
Since 1 July heating degree days 22 66  
Cooling Degree Days 8 2  
Month to date cooling degree days 17 4  
Year to date cooling degree days 504 335  
Growing Degree Days 21 (Base 50)    
Moisture  
Dew Point 66 °F    
Average Humidity 84    
Maximum Humidity 100    
Minimum Humidity 67    
Precipitation  
Precipitation 0.00 in 0.13 in - ()
Month to date precipitation 0.00 0.25  
Sea Level Pressure  
Sea Level Pressure 30.05 in    
Wind  
Wind Speed 3 mph (ESE)    
Max Wind Speed 9 mph    
Max Gust Speed 12 mph    
Visibility 7 miles    
Events Fog    
T = Trace of Precipitation, MM = Missing Value Source: NWS Daily Summary

Daily Weather History Graph

Daily Weather History Graph

Search for Another Location

Airport or City:

Trip Planner

Search our weather history database for the weather conditions in past years. The results will help you decide how hot, cold, wet, or windy it might be!

Date:

Astronomy

Sep. 02, 2012 Rise Set
Actual Time 6:43 AM EDT 7:45 PM EDT
Civil Twilight 6:15 AM EDT 8:14 PM EDT
Nautical Twilight 5:41 AM EDT 8:47 PM EDT
Astronomical Twilight 5:06 AM EDT 9:22 PM EDT
Moon 8:30 PM EDT (9/2) 8:52 AM EDT (9/2)
Length of Visible Light 13h 58m
Length of Day
13h 02m
Waning Gibbous, 95% of the Moon is Illuminated
Sep 2
Waning Gibbous
Sep 8
Last Quarter
Sep 15
New
Sep 22
First Quarter
Sep 29
Full

Hourly Weather History & Observations

Time (EDT) Temp. Dew Point Humidity Pressure Visibility Wind Dir Wind Speed Gust Speed Precip Events Conditions
12:56 AM 68.0 °F 64.9 °F 90% 30.06 in 10.0 mi Calm Calm - N/A   Overcast
1:56 AM 68.0 °F 64.9 °F 90% 30.05 in 8.0 mi Calm Calm - N/A   Clear
2:34 AM 66.2 °F 64.4 °F 94% 30.08 in 7.0 mi Calm Calm - N/A   Partly Cloudy
2:45 AM 64.4 °F 64.4 °F 100% 30.09 in 1.8 mi Calm Calm - N/A   Partly Cloudy
2:53 AM 66.2 °F 64.4 °F 94% 30.08 in 3.0 mi Calm Calm - N/A   Partly Cloudy
2:56 AM 66.0 °F 64.0 °F 93% 30.04 in 4.0 mi South 3.5 mph - N/A   Partly Cloudy
3:19 AM 66.2 °F 64.4 °F 94% 30.09 in 6.0 mi Calm Calm - N/A   Mostly Cloudy
3:56 AM 66.9 °F 64.9 °F 93% 30.05 in 6.0 mi Calm Calm - N/A   Mostly Cloudy
4:09 AM 66.2 °F 64.4 °F 94% 30.08 in 7.0 mi Calm Calm - N/A   Scattered Clouds
4:26 AM 66.2 °F 64.4 °F 94% 30.08 in 2.5 mi Calm Calm - N/A   Mostly Cloudy
4:56 AM 66.0 °F 64.0 °F 93% 30.04 in 3.0 mi Calm Calm - N/A   Overcast
5:33 AM 66.2 °F 64.4 °F 94% 30.08 in 1.8 mi Calm Calm - N/A   Overcast
5:44 AM 66.2 °F 64.4 °F 94% 30.08 in 0.8 mi SSW 3.5 mph - N/A   Mist
5:53 AM 66.2 °F 64.4 °F 94% 30.08 in 1.8 mi Calm Calm - N/A   Overcast
5:56 AM 66.9 °F 64.9 °F 93% 30.04 in 1.5 mi Calm Calm - N/A   Overcast
6:24 AM 66.2 °F 66.2 °F 100% 30.08 in 0.5 mi Calm Calm - N/A Fog Fog
6:39 AM 66.2 °F 66.2 °F 100% 30.08 in 0.2 mi Calm Calm - N/A Fog Fog
6:56 AM 66.9 °F 66.0 °F 97% 30.04 in 0.2 mi Calm Calm - N/A Fog Fog
7:40 AM 66.2 °F 66.2 °F 100% 30.09 in 0.8 mi Calm Calm - N/A   Mist
7:49 AM 66.2 °F 66.2 °F 100% 30.09 in 1.0 mi Calm Calm - N/A   Overcast
7:56 AM 66.9 °F 66.0 °F 97% 30.06 in 1.2 mi Calm Calm - N/A   Overcast
8:17 AM 66.2 °F 66.2 °F 100% 30.09 in 2.5 mi Calm Calm - N/A   Overcast
8:28 AM 66.2 °F 66.2 °F 100% 30.09 in 4.0 mi Calm Calm - N/A   Overcast
8:56 AM 66.9 °F 66.0 °F 97% 30.06 in 6.0 mi Calm Calm - N/A   Overcast
9:29 AM 68.0 °F 66.2 °F 94% 30.09 in 10.0 mi Calm Calm - N/A   Overcast
9:56 AM 70.0 °F 66.0 °F 87% 30.06 in 10.0 mi Calm Calm - N/A   Overcast
10:28 AM 71.6 °F 66.2 °F 83% 30.09 in 10.0 mi Calm Calm - N/A   Overcast
10:56 AM 71.1 °F 64.9 °F 81% 30.06 in 10.0 mi Calm Calm - N/A   Overcast
11:56 AM 73.0 °F 66.0 °F 79% 30.06 in 10.0 mi Calm Calm - N/A   Overcast
12:33 PM 75.2 °F 66.2 °F 73% 30.08 in 10.0 mi Calm Calm - N/A   Overcast
12:56 PM 73.9 °F 66.0 °F 76% 30.05 in 10.0 mi Calm Calm - N/A   Overcast
1:47 PM 75.2 °F 66.2 °F 73% 30.07 in 10.0 mi Calm Calm - N/A   Mostly Cloudy
1:56 PM 75.9 °F 66.0 °F 71% 30.03 in 10.0 mi Calm Calm - N/A   Mostly Cloudy
2:56 PM 75.9 °F 66.0 °F 71% 30.01 in 10.0 mi WSW 3.5 mph - N/A   Overcast
3:07 PM 77.0 °F 66.2 °F 69% 30.04 in 10.0 mi Calm Calm - N/A   Overcast
3:22 PM 78.8 °F 66.2 °F 65% 30.04 in 10.0 mi Calm Calm - N/A   Overcast
3:29 PM 78.8 °F 66.2 °F 65% 30.04 in 10.0 mi Calm Calm - N/A   Overcast
3:53 PM 77.0 °F 66.2 °F 69% 30.03 in 10.0 mi SE 3.5 mph - N/A   Overcast
3:56 PM 77.0 °F 66.0 °F 69% 29.99 in 10.0 mi SE 3.5 mph - N/A   Overcast
4:13 PM 77.0 °F 66.2 °F 69% 30.03 in 10.0 mi Variable 3.5 mph - N/A   Overcast
4:56 PM 78.1 °F 66.0 °F 66% 29.99 in 10.0 mi SW 3.5 mph - N/A   Overcast
5:56 PM 77.0 °F 66.9 °F 71% 29.99 in 10.0 mi NNE 8.1 mph - N/A   Mostly Cloudy
6:04 PM 75.2 °F 66.2 °F 73% 30.03 in 10.0 mi ENE 9.2 mph - N/A   Mostly Cloudy
6:12 PM 75.2 °F 66.2 °F 73% 30.03 in 10.0 mi NE 6.9 mph - N/A   Overcast
6:56 PM 75.0 °F 66.9 °F 76% 30.00 in 10.0 mi East 8.1 mph - N/A   Mostly Cloudy
7:10 PM 75.2 °F 66.2 °F 73% 30.03 in 10.0 mi ENE 3.5 mph - N/A   Mostly Cloudy
7:28 PM 73.4 °F 66.2 °F 78% 30.03 in 10.0 mi East 5.8 mph - N/A   Overcast
7:56 PM 73.0 °F 66.0 °F 79% 30.00 in 10.0 mi East 5.8 mph - N/A   Overcast
8:43 PM 71.6 °F 66.2 °F 83% 30.05 in 10.0 mi East 5.8 mph - N/A   Overcast
8:56 PM 72.0 °F 64.9 °F 78% 30.02 in 10.0 mi East 8.1 mph - N/A   Overcast
9:03 PM 71.6 °F 64.4 °F 78% 30.06 in 10.0 mi East 4.6 mph - N/A   Overcast
9:12 PM 71.6 °F 64.4 °F 78% 30.06 in 10.0 mi ESE 4.6 mph - N/A   Mostly Cloudy
9:56 PM 70.0 °F 64.9 °F 84% 30.03 in 10.0 mi East 5.8 mph - N/A   Mostly Cloudy
10:56 PM 69.1 °F 64.9 °F 87% 30.04 in 10.0 mi ESE 5.8 mph - N/A   Overcast
11:56 PM 68.0 °F 64.4 °F 88% 30.06 in 9.0 mi East 5.8 mph - N/A   Clear